Time,TemperatureF,DewpointF,PressureIn,WindDirection,WindDirectionDegrees,WindSpeedMPH,WindSpeedGustMPH,Humidity,HourlyPrecipIn,Conditions,Clouds,dailyrainin,SoftwareType,DateUTC
2013-03-04 00:00:00,21.0,16.1,30.12,SE,128,0.0,0.0,81,0.00,,,0.00,Wunderground v.1.15,2013-03-04 06:00:00,
2013-03-04 00:05:00,21.1,16.2,30.12,SE,129,0.0,0.0,81,0.00,,,0.00,Wunderground v.1.15,2013-03-04 06:05:00,
2013-03-04 00:15:00,21.2,16.3,30.12,SE,129,0.0,0.0,81,0.00,,,0.00,Wunderground v.1.15,2013-03-04 06:15:00,
2013-03-04 01:40:00,22.5,18.1,30.13,SE,131,0.0,0.0,83,0.00,,,0.00,Wunderground v.1.15,2013-03-04 07:40:00,
2013-03-04 01:45:00,22.5,18.1,30.13,SE,145,0.0,0.0,83,0.00,,,0.00,Wunderground v.1.15,2013-03-04 07:45:00,
2013-03-04 01:55:00,22.4,18.0,30.13,ESE,115,0.0,0.0,83,0.00,,,0.00,Wunderground v.1.15,2013-03-04 07:55:00,
2013-03-04 02:00:00,22.5,18.4,30.13,SSE,153,0.0,0.0,84,0.00,,,0.00,Wunderground v.1.15,2013-03-04 08:00:00,
2013-03-04 02:10:00,22.7,18.6,30.13,East,94,0.0,0.0,84,0.00,,,0.00,Wunderground v.1.15,2013-03-04 08:10:00,
2013-03-04 02:20:00,22.9,18.8,30.13,SE,129,1.0,1.0,84,0.00,,,0.00,Wunderground v.1.15,2013-03-04 08:20:00,
2013-03-04 02:25:00,23.0,18.9,30.13,SSE,166,1.0,1.0,84,0.00,,,0.00,Wunderground v.1.15,2013-03-04 08:25:00,
2013-03-04 02:35:00,23.1,19.0,30.12,East,94,1.0,1.0,84,0.00,,,0.00,Wunderground v.1.15,2013-03-04 08:35:00,
2013-03-04 02:45:00,23.1,19.0,30.11,ENE,57,1.0,2.0,84,0.00,,,0.00,Wunderground v.1.15,2013-03-04 08:45:00,
2013-03-04 02:55:00,23.1,18.7,30.11,SE,132,1.0,3.0,83,0.00,,,0.00,Wunderground v.1.15,2013-03-04 08:55:00,
2013-03-04 03:00:00,23.0,18.6,30.11,SE,143,0.0,0.0,83,0.00,,,0.00,Wunderground v.1.15,2013-03-04 09:00:00,
2013-03-04 03:10:00,22.8,18.7,30.11,SSE,165,0.0,0.0,84,0.00,,,0.00,Wunderground v.1.15,2013-03-04 09:10:00,
2013-03-04 03:15:00,22.8,18.7,30.11,SE,140,0.0,0.0,84,0.00,,,0.00,Wunderground v.1.15,2013-03-04 09:15:00,
2013-03-04 03:25:00,22.7,18.6,30.10,SSE,156,0.0,0.0,84,0.00,,,0.00,Wunderground v.1.15,2013-03-04 09:25:00,
2013-03-04 03:35:00,22.7,18.3,30.10,South,181,0.0,0.0,83,0.00,,,0.00,Wunderground v.1.15,2013-03-04 09:35:00,
2013-03-04 03:40:00,22.8,18.4,30.10,SSE,162,0.0,0.0,83,0.00,,,0.00,Wunderground v.1.15,2013-03-04 09:40:00,
2013-03-04 03:50:00,22.7,18.6,30.10,SE,146,0.0,0.0,84,0.00,,,0.00,Wunderground v.1.15,2013-03-04 09:50:00,
2013-03-04 04:00:00,22.7,18.6,30.10,East,96,0.0,0.0,84,0.00,,,0.00,Wunderground v.1.15,2013-03-04 10:00:00,
2013-03-04 04:05:00,22.8,18.4,30.10,SE,135,0.0,0.0,83,0.00,,,0.00,Wunderground v.1.15,2013-03-04 10:05:00,
2013-03-04 04:20:00,23.1,18.7,30.09,NE,47,1.0,2.0,83,0.00,,,0.00,Wunderground v.1.15,2013-03-04 10:20:00,
2013-03-04 04:30:00,23.4,19.0,30.09,SSE,153,1.0,5.0,83,0.00,,,0.00,Wunderground v.1.15,2013-03-04 10:30:00,
2013-03-04 04:40:00,23.7,19.0,30.09,SSE,165,2.0,3.0,82,0.00,,,0.00,Wunderground v.1.15,2013-03-04 10:40:00,
2013-03-04 04:45:00,23.8,19.1,30.09,SE,140,1.0,3.0,82,0.00,,,0.00,Wunderground v.1.15,2013-03-04 10:45:00,
2013-03-04 07:15:00,25.2,20.2,30.09,East,94,2.0,2.0,81,0.00,,,0.00,Wunderground v.1.15,2013-03-04 13:15:00,
2013-03-04 07:25:00,25.4,20.1,30.09,SE,128,3.0,4.0,80,0.00,,,0.00,Wunderground v.1.15,2013-03-04 13:25:00,
2013-03-04 07:35:00,25.8,20.5,30.09,SSE,166,3.0,3.0,80,0.00,,,0.00,Wunderground v.1.15,2013-03-04 13:35:00,
2013-03-04 07:40:00,25.9,20.6,30.09,NNW,333,3.0,3.0,80,0.00,,,0.00,Wunderground v.1.15,2013-03-04 13:40:00,
2013-03-04 07:45:00,26.1,20.8,30.09,SSW,201,3.0,3.0,80,0.00,,,0.00,Wunderground v.1.15,2013-03-04 13:45:00,
2013-03-04 07:55:00,26.5,21.2,30.09,ESE,119,2.0,3.0,80,0.00,,,0.00,Wunderground v.1.15,2013-03-04 13:55:00,
2013-03-04 08:00:00,26.8,21.2,30.08,SW,214,3.0,3.0,79,0.00,,,0.00,Wunderground v.1.15,2013-03-04 14:00:00,
2013-03-04 08:10:00,26.9,21.0,30.08,SSE,158,3.0,3.0,78,0.00,,,0.00,Wunderground v.1.15,2013-03-04 14:10:00,
2013-03-04 08:20:00,27.1,21.2,30.09,NE,37,3.0,4.0,78,0.00,,,0.00,Wunderground v.1.15,2013-03-04 14:20:00,
2013-03-04 08:25:00,27.2,21.2,30.09,SE,146,3.0,4.0,78,0.00,,,0.00,Wunderground v.1.15,2013-03-04 14:25:00,
2013-03-04 08:35:00,27.3,21.3,30.08,SE,143,3.0,7.0,78,0.00,,,0.00,Wunderground v.1.15,2013-03-04 14:35:00,
2013-03-04 08:40:00,27.4,21.4,30.08,SE,143,4.0,4.0,78,0.00,,,0.00,Wunderground v.1.15,2013-03-04 14:40:00,
2013-03-04 08:50:00,27.5,21.2,30.07,SSE,155,3.0,4.0,77,0.00,,,0.00,Wunderground v.1.15,2013-03-04 14:50:00,
2013-03-04 09:00:00,27.7,21.4,30.07,SE,126,4.0,4.0,77,0.00,,,0.00,Wunderground v.1.15,2013-03-04 15:00:00,
2013-03-04 09:10:00,27.9,21.6,30.07,NNE,32,4.0,4.0,77,0.00,,,0.00,Wunderground v.1.15,2013-03-04 15:10:00,
2013-03-04 09:25:00,28.3,22.0,30.06,South,179,5.0,5.0,77,0.00,,,0.00,Wunderground v.1.15,2013-03-04 15:25:00,
2013-03-04 09:35:00,28.6,22.0,30.06,South,169,5.0,9.0,76,0.00,,,0.00,Wunderground v.1.15,2013-03-04 15:35:00,
2013-03-04 09:45:00,28.8,22.2,30.06,SSE,158,4.0,6.0,76,0.00,,,0.00,Wunderground v.1.15,2013-03-04 15:45:00,
2013-03-04 09:50:00,28.7,22.1,30.06,ENE,77,5.0,6.0,76,0.00,,,0.00,Wunderground v.1.15,2013-03-04 15:50:00,
2013-03-04 10:00:00,28.9,22.3,30.06,NNW,340,3.0,3.0,76,0.00,,,0.00,Wunderground v.1.15,2013-03-04 16:00:00,
2013-03-04 10:10:00,28.8,22.2,30.06,South,172,4.0,6.0,76,0.00,,,0.00,Wunderground v.1.15,2013-03-04 16:10:00,
2013-03-04 10:15:00,28.9,22.3,30.07,East,98,3.0,6.0,76,0.00,,,0.00,Wunderground v.1.15,2013-03-04 16:15:00,
2013-03-04 10:25:00,29.1,22.8,30.07,East,100,4.0,10.0,77,0.00,,,0.00,Wunderground v.1.15,2013-03-04 16:25:00,
2013-03-04 10:35:00,29.1,22.8,30.07,ESE,119,4.0,4.0,77,0.00,,,0.00,Wunderground v.1.15,2013-03-04 16:35:00,
2013-03-04 10:45:00,29.1,22.8,30.06,ESE,109,4.0,4.0,77,0.00,,,0.00,Wunderground v.1.15,2013-03-04 16:45:00,
2013-03-04 10:55:00,29.0,23.0,30.06,SE,135,4.0,7.0,78,0.00,,,0.00,Wunderground v.1.15,2013-03-04 16:55:00,
2013-03-04 11:00:00,29.1,23.4,30.06,East,99,4.0,9.0,79,0.00,,,0.00,Wunderground v.1.15,2013-03-04 17:00:00,
2013-03-04 11:10:00,29.1,23.1,30.05,NE,50,4.0,4.0,78,0.00,,,0.00,Wunderground v.1.15,2013-03-04 17:10:00,
2013-03-04 11:15:00,29.3,23.3,30.05,SE,134,5.0,5.0,78,0.00,,,0.00,Wunderground v.1.15,2013-03-04 17:15:00,
2013-03-04 11:25:00,29.5,23.5,30.05,SSE,159,4.0,4.0,78,0.00,,,0.00,Wunderground v.1.15,2013-03-04 17:25:00,
2013-03-04 11:30:00,29.7,23.7,30.04,South,176,4.0,4.0,78,0.00,,,0.00,Wunderground v.1.15,2013-03-04 17:30:00,
2013-03-04 11:40:00,30.1,24.1,30.04,ENE,64,5.0,6.0,78,0.00,,,0.00,Wunderground v.1.15,2013-03-04 17:40:00,
2013-03-04 11:50:00,30.1,24.1,30.04,East,89,6.0,6.0,78,0.00,,,0.00,Wunderground v.1.15,2013-03-04 17:50:00,
2013-03-04 11:55:00,30.1,24.1,30.04,ESE,122,6.0,8.0,78,0.00,,,0.00,Wunderground v.1.15,2013-03-04 17:55:00,
2013-03-04 12:05:00,30.4,24.4,30.03,SE,132,5.0,10.0,78,0.00,,,0.00,Wunderground v.1.15,2013-03-04 18:05:00,
2013-03-04 12:15:00,30.8,24.4,30.03,SW,215,6.0,6.0,77,0.00,,,0.00,Wunderground v.1.15,2013-03-04 18:15:00,
2013-03-04 12:25:00,30.9,24.2,30.02,SSW,207,5.0,5.0,76,0.00,,,0.00,Wunderground v.1.15,2013-03-04 18:25:00,
2013-03-04 12:30:00,30.9,24.8,30.02,ENE,76,6.0,6.0,78,0.00,,,0.00,Wunderground v.1.15,2013-03-04 18:30:00,
2013-03-04 12:35:00,30.9,24.5,30.02,ENE,73,7.0,8.0,77,0.00,,,0.00,Wunderground v.1.15,2013-03-04 18:35:00,
2013-03-04 12:40:00,31.0,24.6,30.02,NE,44,6.0,12.0,77,0.00,,,0.00,Wunderground v.1.15,2013-03-04 18:40:00,
2013-03-04 12:45:00,31.0,24.3,30.01,SW,232,5.0,5.0,76,0.00,,,0.00,Wunderground v.1.15,2013-03-04 18:45:00,
2013-03-04 12:50:00,31.0,24.3,30.01,NE,49,5.0,5.0,76,0.00,,,0.00,Wunderground v.1.15,2013-03-04 18:50:00,
2013-03-04 12:55:00,31.0,24.6,30.02,SE,135,5.0,6.0,77,0.00,,,0.00,Wunderground v.1.15,2013-03-04 18:55:00,
2013-03-04 13:00:00,31.1,24.7,30.02,SSE,166,4.0,6.0,77,0.00,,,0.00,Wunderground v.1.15,2013-03-04 19:00:00,
2013-03-04 13:10:00,31.1,24.4,30.01,SE,127,5.0,5.0,76,0.00,,,0.00,Wunderground v.1.15,2013-03-04 19:10:00,
2013-03-04 13:15:00,31.2,24.8,30.01,NW,322,5.0,5.0,77,0.00,,,0.00,Wunderground v.1.15,2013-03-04 19:15:00,
2013-03-04 13:25:00,31.3,24.9,30.00,South,184,5.0,5.0,77,0.00,,,0.00,Wunderground v.1.15,2013-03-04 19:25:00,
2013-03-04 13:30:00,31.6,25.5,30.00,SSE,158,4.0,4.0,78,0.00,,,0.00,Wunderground v.1.15,2013-03-04 19:30:00,
2013-03-04 13:40:00,32.0,25.3,30.00,SSE,153,4.0,8.0,76,0.00,,,0.00,Wunderground v.1.15,2013-03-04 19:40:00,
2013-03-04 13:50:00,32.3,25.9,30.00,ENE,68,4.0,9.0,77,0.00,,,0.00,Wunderground v.1.15,2013-03-04 19:50:00,
2013-03-04 13:55:00,32.3,25.9,29.99,ENE,70,4.0,9.0,77,0.00,,,0.00,Wunderground v.1.15,2013-03-04 19:55:00,
2013-03-04 14:00:00,31.6,25.5,29.99,SE,139,7.0,7.0,78,0.00,,,0.00,Wunderground v.1.15,2013-03-04 20:00:00,
2013-03-04 14:10:00,31.0,25.6,29.99,ENE,57,8.0,9.0,80,0.00,,,0.00,Wunderground v.1.15,2013-03-04 20:10:00,
2013-03-04 14:20:00,30.6,25.2,29.99,ENE,65,7.0,11.0,80,0.00,,,0.00,Wunderground v.1.15,2013-03-04 20:20:00,
2013-03-04 14:25:00,30.6,25.2,29.99,SSE,150,7.0,11.0,80,0.00,,,0.00,Wunderground v.1.15,2013-03-04 20:25:00,
2013-03-04 14:35:00,30.6,25.5,29.99,SSW,204,8.0,11.0,81,0.00,,,0.00,Wunderground v.1.15,2013-03-04 20:35:00,
2013-03-04 15:25:00,30.9,25.8,29.97,NE,44,7.0,10.0,81,0.00,,,0.00,Wunderground v.1.15,2013-03-04 21:25:00,
2013-03-04 15:35:00,31.3,25.8,29.96,ENE,70,8.0,11.0,80,0.00,,,0.00,Wunderground v.1.15,2013-03-04 21:35:00,
2013-03-04 15:45:00,31.7,25.9,29.96,ENE,61,7.0,9.0,79,0.00,,,0.00,Wunderground v.1.15,2013-03-04 21:45:00,
2013-03-04 15:50:00,32.0,26.2,29.96,NE,56,8.0,12.0,79,0.00,,,0.00,Wunderground v.1.15,2013-03-04 21:50:00,
2013-03-04 16:00:00,32.5,26.4,29.96,ENE,67,7.0,9.0,78,0.00,,,0.00,Wunderground v.1.15,2013-03-04 22:00:00,
2013-03-04 16:10:00,32.4,26.0,29.95,SE,142,8.0,12.0,77,0.00,,,0.00,Wunderground v.1.15,2013-03-04 22:10:00,
2013-03-04 16:20:00,32.3,25.9,29.95,ENE,60,8.0,9.0,77,0.00,,,0.00,Wunderground v.1.15,2013-03-04 22:20:00,
2013-03-04 16:30:00,32.4,25.4,29.95,ENE,64,6.0,6.0,75,0.00,,,0.00,Wunderground v.1.15,2013-03-04 22:30:00,
2013-03-04 16:35:00,32.5,25.8,29.95,East,93,6.0,6.0,76,0.00,,,0.00,Wunderground v.1.15,2013-03-04 22:35:00,
2013-03-04 16:45:00,32.6,25.6,29.95,ENE,61,6.0,12.0,75,0.00,,,0.00,Wunderground v.1.15,2013-03-04 22:45:00,
2013-03-04 16:50:00,32.5,25.5,29.95,NE,50,8.0,8.0,75,0.00,,,0.00,Wunderground v.1.15,2013-03-04 22:50:00,
2013-03-04 17:00:00,32.2,25.2,29.95,ESE,120,6.0,6.0,75,0.00,,,0.00,Wunderground v.1.15,2013-03-04 23:00:00,
2013-03-04 17:10:00,32.1,25.4,29.96,ESE,121,6.0,6.0,76,0.00,,,0.00,Wunderground v.1.15,2013-03-04 23:10:00,
2013-03-04 17:20:00,32.0,25.9,29.97,SE,126,5.0,5.0,78,0.00,,,0.00,Wunderground v.1.15,2013-03-04 23:20:00,
2013-03-04 17:30:00,32.0,26.2,29.97,SSE,158,3.0,3.0,79,0.00,,,0.00,Wunderground v.1.15,2013-03-04 23:30:00,
2013-03-04 17:35:00,31.9,26.1,29.97,East,84,4.0,10.0,79,0.00,,,0.00,Wunderground v.1.15,2013-03-04 23:35:00,
2013-03-04 17:45:00,31.9,26.1,29.97,SE,129,4.0,7.0,79,0.00,,,0.00,Wunderground v.1.15,2013-03-04 23:45:00,
2013-03-04 17:50:00,31.9,26.1,29.97,SSE,149,3.0,3.0,79,0.00,,,0.00,Wunderground v.1.15,2013-03-04 23:50:00,
2013-03-04 18:00:00,32.0,26.2,29.98,SSW,201,4.0,4.0,79,0.00,,,0.00,Wunderground v.1.15,2013-03-05 00:00:00,
2013-03-04 18:05:00,32.0,26.2,29.98,SSE,162,4.0,6.0,79,0.00,,,0.00,Wunderground v.1.15,2013-03-05 00:05:00,
2013-03-04 18:15:00,32.0,26.2,29.98,SSE,149,4.0,5.0,79,0.00,,,0.00,Wunderground v.1.15,2013-03-05 00:15:00,
2013-03-04 18:20:00,32.1,26.3,29.99,ESE,123,5.0,5.0,79,0.00,,,0.00,Wunderground v.1.15,2013-03-05 00:20:00,
2013-03-04 18:30:00,32.1,26.3,29.99,ENE,77,4.0,9.0,79,0.00,,,0.00,Wunderground v.1.15,2013-03-05 00:30:00,
2013-03-04 18:40:00,32.1,26.6,29.99,ENE,58,4.0,4.0,80,0.00,,,0.00,Wunderground v.1.15,2013-03-05 00:40:00,
2013-03-04 18:50:00,32.1,26.6,29.99,ENE,73,4.0,4.0,80,0.00,,,0.00,Wunderground v.1.15,2013-03-05 00:50:00,
2013-03-04 18:55:00,32.0,26.5,29.99,ENE,69,4.0,4.0,80,0.00,,,0.00,Wunderground v.1.15,2013-03-05 00:55:00,
2013-03-04 19:00:00,32.0,26.8,29.99,ENE,61,4.0,7.0,81,0.00,,,0.00,Wunderground v.1.15,2013-03-05 01:00:00,
2013-03-04 19:10:00,31.9,26.7,29.99,SE,124,3.0,3.0,81,0.00,,,0.00,Wunderground v.1.15,2013-03-05 01:10:00,
2013-03-04 19:20:00,31.9,26.7,30.00,NE,53,4.0,4.0,81,0.00,,,0.00,Wunderground v.1.15,2013-03-05 01:20:00,
2013-03-04 19:25:00,31.8,26.9,30.00,South,170,3.0,4.0,82,0.00,,,0.00,Wunderground v.1.15,2013-03-05 01:25:00,
2013-03-04 19:35:00,31.8,26.9,30.00,SE,128,3.0,5.0,82,0.00,,,0.00,Wunderground v.1.15,2013-03-05 01:35:00,
2013-03-04 19:40:00,31.8,26.9,30.00,NE,54,3.0,3.0,82,0.00,,,0.00,Wunderground v.1.15,2013-03-05 01:40:00,
2013-03-04 19:50:00,31.8,26.6,30.00,SW,218,4.0,4.0,81,0.00,,,0.00,Wunderground v.1.15,2013-03-05 01:50:00,
2013-03-04 19:55:00,31.8,26.6,30.00,ENE,65,4.0,4.0,81,0.00,,,0.00,Wunderground v.1.15,2013-03-05 01:55:00,
2013-03-04 20:00:00,31.8,26.6,30.00,ENE,67,4.0,7.0,81,0.00,,,0.00,Wunderground v.1.15,2013-03-05 02:00:00,
2013-03-04 20:10:00,31.9,26.7,30.00,ENE,65,5.0,7.0,81,0.00,,,0.00,Wunderground v.1.15,2013-03-05 02:10:00,
2013-03-04 20:20:00,32.0,26.8,30.00,East,88,5.0,5.0,81,0.00,,,0.00,Wunderground v.1.15,2013-03-05 02:20:00,
2013-03-04 20:30:00,31.8,26.9,30.00,ENE,68,6.0,6.0,82,0.00,,,0.00,Wunderground v.1.15,2013-03-05 02:30:00,
2013-03-04 20:40:00,31.7,27.1,29.99,East,84,6.0,6.0,83,0.00,,,0.00,Wunderground v.1.15,2013-03-05 02:40:00,
2013-03-04 20:50:00,31.6,27.0,29.99,ENE,78,6.0,7.0,83,0.00,,,0.00,Wunderground v.1.15,2013-03-05 02:50:00,
2013-03-04 20:55:00,31.6,27.0,29.99,ENE,58,6.0,7.0,83,0.00,,,0.00,Wunderground v.1.15,2013-03-05 02:55:00,
2013-03-04 21:00:00,31.5,26.9,29.99,ENE,58,5.0,8.0,83,0.00,,,0.00,Wunderground v.1.15,2013-03-05 03:00:00,
2013-03-04 21:05:00,31.5,26.9,29.99,NE,50,6.0,8.0,83,0.00,,,0.00,Wunderground v.1.15,2013-03-05 03:05:00,
2013-03-04 21:15:00,31.6,27.0,29.98,ENE,65,6.0,7.0,83,0.00,,,0.00,Wunderground v.1.15,2013-03-05 03:15:00,
2013-03-04 21:20:00,31.6,27.0,29.98,ESE,116,6.0,6.0,83,0.00,,,0.00,Wunderground v.1.15,2013-03-05 03:20:00,
2013-03-04 21:30:00,31.5,26.9,29.98,NE,53,6.0,6.0,83,0.00,,,0.00,Wunderground v.1.15,2013-03-05 03:30:00,
2013-03-04 21:40:00,31.5,27.2,29.98,ENE,72,6.0,6.0,84,0.00,,,0.00,Wunderground v.1.15,2013-03-05 03:40:00,
2013-03-04 21:50:00,31.4,27.4,29.98,NE,49,7.0,7.0,85,0.00,,,0.00,Wunderground v.1.15,2013-03-05 03:50:00,
2013-03-04 22:00:00,31.3,27.3,29.98,ENE,68,7.0,9.0,85,0.00,,,0.00,Wunderground v.1.15,2013-03-05 04:00:00,
2013-03-04 22:05:00,31.2,27.2,29.98,ENE,73,7.0,9.0,85,0.00,,,0.00,Wunderground v.1.15,2013-03-05 04:05:00,
2013-03-04 22:15:00,31.3,27.3,29.98,ENE,57,6.0,8.0,85,0.00,,,0.00,Wunderground v.1.15,2013-03-05 04:15:00,
2013-03-04 22:25:00,31.4,27.4,29.97,ENE,69,6.0,9.0,85,0.00,,,0.00,Wunderground v.1.15,2013-03-05 04:25:00,
2013-03-04 22:35:00,31.5,27.5,29.97,NNE,13,7.0,7.0,85,0.00,,,0.00,Wunderground v.1.15,2013-03-05 04:35:00,
2013-03-04 22:45:00,31.6,27.6,29.97,ENE,68,6.0,10.0,85,0.00,,,0.00,Wunderground v.1.15,2013-03-05 04:45:00,
2013-03-04 22:50:00,31.7,27.7,29.96,East,84,7.0,13.0,85,0.00,,,0.00,Wunderground v.1.15,2013-03-05 04:50:00,
2013-03-04 23:00:00,31.7,27.7,29.96,ENE,64,6.0,7.0,85,0.00,,,0.00,Wunderground v.1.15,2013-03-05 05:00:00,
2013-03-04 23:05:00,31.7,27.7,29.96,East,96,5.0,11.0,85,0.00,,,0.00,Wunderground v.1.15,2013-03-05 05:05:00,
2013-03-04 23:10:00,31.8,27.8,29.96,NE,51,5.0,5.0,85,0.00,,,0.00,Wunderground v.1.15,2013-03-05 05:10:00,
2013-03-04 23:15:00,31.8,27.8,29.96,ENE,63,6.0,6.0,85,0.00,,,0.00,Wunderground v.1.15,2013-03-05 05:15:00,
2013-03-04 23:20:00,31.8,27.8,29.96,ENE,66,7.0,7.0,85,0.00,,,0.00,Wunderground v.1.15,2013-03-05 05:20:00,